Regional Weather Roundup
Issued by NWS

Home | Current Version | Previous Version | Text Only | Print | Product List | Glossary Off
Versions: 1 2 3 4 5 6 7 8 9 10 11 12 13 14 15 16 17 18 19 20 21 22 23 24 25 26 27 28 29 30 31 32 33 34 35 36 37 38 39 40 41 42 43 44 45 46 47 48 49 50

000
ASUS43 KOAX 291902
RWRNE

WEATHER ROUNDUP FOR NEBRASKA
NATIONAL WEATHER SERVICE OMAHA NE
200 PM CDT SUN MAR 29 2015

NOTES: SATELLITE DATA IS BEING USED TO AUGMENT CLOUD COVER ABOVE
       12000 FEET.
       "FAIR" INDICATES FEW OR NO CLOUDS BELOW 12,000 FEET WITH NO
       SIGNIFICANT WEATHER AND/OR OBSTRUCTIONS TO VISIBILITY.

  * THESE STATIONS DO NOT REPORT WEATHER SUCH AS RAIN...SNOW OR FOG.

NEZ001>004-019>022-054>056-292000-
NEBRASKA PANHANDLE

CITY           SKY/WX    TMP DP  RH WIND       PRES   REMARKS
SCOTTSBLUFF    SUNNY     60  26  27 NW13G26   30.22F
ALLIANCE       SUNNY     59  24  26 N20G26    30.20F
CHADRON        MOSUNNY   59  29  31 W9        30.20F
KIMBALL        SUNNY     56  24  28 NW14G26   30.23F
SIDNEY         SUNNY     60  23  24 N23G36    30.24F
$$

NEZ057>060-069>072-079>082-292000-
SOUTHWEST NEBRASKA

CITY           SKY/WX    TMP DP  RH WIND       PRES   REMARKS
NORTH PLATTE   SUNNY     60  19  20 N22G33    30.18F
IMPERIAL         N/A     60  25  26 N17G32    30.22F
MCCOOK         SUNNY     65  23  20 N28G37    30.19S
$$

NEZ005>010-023>029-035>040-094-292000-
NORTH CENTRAL NEBRASKA

CITY           SKY/WX    TMP DP  RH WIND       PRES   REMARKS
VALENTINE      SUNNY     57  18  21 NW21G29   30.15F
AINSWORTH      SUNNY     57  18  22 NW22G31   30.14F
BROKEN BOW     SUNNY     61  15  16 N24G35    30.14S
O`NEILL        SUNNY     58  28  31 NW23G36   30.10F
ORD            SUNNY     61  16  17 N24G39    30.11S
$$

NEZ041-046>049-061>064-073>077-083>087-292000-
SOUTH CENTRAL NEBRASKA

CITY           SKY/WX    TMP DP  RH WIND       PRES   REMARKS
GRAND ISLAND   SUNNY     62  26  25 NW30G41   30.10F
AURORA         MOSUNNY   62  30  30 N26G38    30.10S
HEBRON         SUNNY     64  32  30 N22G30    30.08S
HOLDREGE       SUNNY     62  22  21 N24G32    30.14S
KEARNEY *      SUNNY     63  23  22 N26G33    30.13R
YORK           SUNNY     59  36  41 N22G28    30.09R
$$

NEZ011>018-030>034-042>045-292000-
NORTHEAST NEBRASKA

CITY           SKY/WX    TMP DP  RH WIND       PRES   REMARKS
NORFOLK        SUNNY     57  32  38 NW26G38   30.05S
ALBION         MOSUNNY   57  31  36 NW18G30   30.09S
BLAIR          CLOUDY    54  37  53 NW22G37   30.03R
COLUMBUS *     MOSUNNY   57  36  44 NW21G37   30.10S
FREMONT        PTSUNNY   57  36  45 NW25G35   30.06S
TEKAMAH        PTSUNNY   59  38  45 NW22G35   30.03R
WAYNE          SUNNY     57  33  41 NW24G33   30.05R
$$

NEZ050>053-065>068-078-088>093-292000-
SOUTHEAST NEBRASKA

CITY           SKY/WX    TMP DP  RH WIND       PRES   REMARKS
LINCOLN        CLOUDY    58  38  47 NW30G38   30.08R
OMAHA EPPLEY   CLOUDY    53  38  56 NW25G36   30.02R
BEATRICE       SUNNY     61  38  43 N26G40    30.06R
FALLS CITY     PTSUNNY   65  40  39 NW25G41   29.99R
NEBRASKA CITY  CLOUDY    57  38  47 NW28G38   30.03R
PLATTSMOUTH    PTSUNNY   56  35  45 NW28G38   30.03R
$$

NEZ044-045-051>053-067-292000-
OMAHA AREA

CITY           SKY/WX    TMP DP  RH WIND       PRES   REMARKS
OMAHA EPPLEY   CLOUDY    53  38  56 NW25G36   30.02R
BLAIR          CLOUDY    54  37  53 NW22G37   30.03R
FREMONT        PTSUNNY   57  36  45 NW25G35   30.06S
OFFUTT AFB     CLOUDY    54  38  55 NW25G38   30.03R
PLATTSMOUTH    PTSUNNY   56  35  45 NW28G38   30.03R
WAHOO          CLOUDY    56  35  45 NW28G36   30.06S
$$


USA.gov is the U.S. government's official web portal to all federal, state and local government web resources and services.